Weather History for Boonville, MO

Change the Weather History Date:

Thursday, January 10, 2013

  Actual Average Record
Temperature  
Mean Temperature 44 °F -  
Max Temperature 50 °F 33 °F 65 °F (1963)
Min Temperature 39 °F 14 °F -18 °F (1982)
Degree Days  
Heating Degree Days 20    
Moisture  
Dew Point 40 °F    
Average Humidity 87    
Maximum Humidity 100    
Minimum Humidity 44    
Precipitation  
Precipitation 0.15 in - - ()
Sea Level Pressure  
Sea Level Pressure 30.04 in    
Wind  
Wind Speed 9 mph (ESE)    
Max Wind Speed 16 mph    
Max Gust Speed 22 mph    
Visibility 6 miles    
Events Fog , Rain    
Averages and records for this station are not official NWS values.
T = Trace of Precipitation, MM = Missing Value Source: NWS Daily Summary

Daily Weather History Graph

Daily Weather History Graph

Search for Another Location

Airport:

Trip Planner

Search our weather history database for the weather conditions in past years. The results will help you decide how hot, cold, wet, or windy it might be!

Date:

Astronomy

Jan. 10, 2013 Rise Set
Actual Time 7:29 AM CST 5:07 PM CST
Civil Twilight 6:59 AM CST 5:37 PM CST
Nautical Twilight 6:26 AM CST 6:10 PM CST
Astronomical Twilight 5:54 AM CST 6:42 PM CST
Moon 6:09 AM CST (1/10) 4:16 PM CST (1/10)
Length of Visible Light 10h 37m
Length of Day
9h 38m
Waning Crescent, 2% of the Moon is Illuminated
Jan 10
Waning Crescent
Jan 11
New
Jan 18
First Quarter
Jan 26
Full
Feb 3
Last Quarter

Hourly Weather History & Observations

Time (CST) Temp. Windchill Dew Point Humidity Pressure Visibility Wind Dir Wind Speed Gust Speed Precip Events Conditions
12:15 AM 40.1 °F 34.1 °F 26.4 °F 58% 30.38 in 10.0 mi East 9.2 mph - N/A   Clear
12:35 AM 40.3 °F 35.5 °F 25.5 °F 56% 30.38 in 10.0 mi ESE 6.9 mph - N/A   Clear
12:55 AM 40.5 °F 35.8 °F 24.8 °F 54% 30.37 in 10.0 mi East 6.9 mph - N/A   Clear
2:15 AM 42.1 °F 36.6 °F 25.0 °F 51% 30.35 in 10.0 mi East 9.2 mph - N/A   Clear
2:35 AM 42.4 °F 37.0 °F 24.3 °F 49% 30.34 in 10.0 mi East 9.2 mph - N/A   Clear
2:55 AM 42.4 °F 37.0 °F 23.9 °F 48% 30.33 in 10.0 mi East 9.2 mph - N/A   Clear
3:15 AM 43.2 °F 37.4 °F 23.4 °F 46% 30.33 in 10.0 mi ESE 10.4 mph - N/A   Scattered Clouds
3:35 AM 43.7 °F 38.1 °F 23.0 °F 44% 30.32 in 10.0 mi East 10.4 mph - N/A   Mostly Cloudy
3:55 AM 43.9 °F 38.3 °F 23.0 °F 44% 30.32 in 10.0 mi ESE 10.4 mph 16.1 mph N/A   Overcast
4:15 AM 43.7 °F 38.6 °F 24.1 °F 46% 30.30 in 10.0 mi ESE 9.2 mph - N/A   Light Drizzle
4:35 AM 42.6 °F 37.8 °F 26.6 °F 53% 30.28 in 10.0 mi East 8.1 mph - N/A   Light Drizzle
4:55 AM 42.3 °F 37.3 °F 27.5 °F 56% 30.27 in 10.0 mi East 8.1 mph - N/A   Light Drizzle
5:15 AM 42.1 °F 37.7 °F 28.2 °F 58% 30.26 in 10.0 mi East 6.9 mph - N/A   Drizzle
5:35 AM 42.1 °F 36.6 °F 28.8 °F 59% 30.24 in 10.0 mi ESE 9.2 mph - N/A Rain Light Rain
5:55 AM 41.4 °F 34.7 °F 30.2 °F 65% 30.24 in 10.0 mi ESE 11.5 mph - N/A Rain Rain
6:15 AM 41.2 °F 34.1 °F 30.7 °F 66% 30.24 in 10.0 mi ESE 12.7 mph 16.1 mph N/A   Light Drizzle
6:35 AM 41.2 °F 34.5 °F 31.6 °F 69% 30.23 in 10.0 mi ESE 11.5 mph - N/A   Light Drizzle
6:55 AM 40.8 °F 34.5 °F 32.2 °F 71% 30.23 in 10.0 mi ESE 10.4 mph - N/A   Drizzle
7:15 AM 40.1 °F 32.7 °F 33.4 °F 77% 30.22 in 10.0 mi ESE 12.7 mph - N/A Rain Rain
7:55 AM 39.2 °F 31.2 °F 37.2 °F 93% 30.20 in 1.5 mi East 13.8 mph 18.4 mph 0.07 in Rain Rain
8:15 AM 39.2 °F 32.0 °F 38.1 °F 96% 30.20 in 2.0 mi East 11.5 mph - 0.01 in Rain Heavy Rain
8:35 AM 39.2 °F 32.5 °F 38.5 °F 97% 30.18 in 4.0 mi East 10.4 mph - 0.02 in   Light Drizzle
8:55 AM 39.6 °F 33.5 °F 39.0 °F 98% 30.18 in 3.0 mi East 9.2 mph - 0.02 in   Drizzle
9:15 AM 39.7 °F 33.7 °F 39.4 °F 99% 30.16 in 2.0 mi East 9.2 mph - 0.01 in   Heavy Drizzle
9:35 AM 40.3 °F 33.0 °F 39.9 °F 99% 30.15 in 3.0 mi ESE 12.7 mph 17.3 mph 0.02 in   Light Drizzle
9:55 AM 40.8 °F 33.7 °F 40.3 °F 98% 30.14 in 4.0 mi ESE 12.7 mph - 0.02 in Rain Light Rain
10:15 AM 41.2 °F 34.1 °F 41.0 °F 99% 30.13 in 2.5 mi East 12.7 mph 18.4 mph N/A Rain Rain
10:35 AM 41.7 °F 33.7 °F 41.2 °F 98% 30.11 in 10.0 mi ESE 16.1 mph 21.9 mph N/A   Overcast
10:55 AM 41.9 °F 35.0 °F 41.2 °F 97% 30.08 in 10.0 mi ESE 12.7 mph 17.3 mph N/A   Overcast
11:15 AM 42.4 °F 36.5 °F 41.7 °F 97% 30.05 in 10.0 mi ESE 10.4 mph - N/A   Overcast
11:35 AM 42.8 °F 36.2 °F 42.1 °F 97% 30.05 in 10.0 mi SE 12.7 mph - N/A   Overcast
11:55 AM 42.8 °F 36.6 °F 42.3 °F 98% 30.05 in 10.0 mi SE 11.5 mph - N/A   Overcast
12:15 PM 43.2 °F 37.0 °F 42.8 °F 99% 30.00 in 7.0 mi ESE 11.5 mph - N/A   Overcast
12:35 PM 43.9 °F 37.5 °F 43.5 °F 99% 29.99 in 5.0 mi ESE 12.7 mph - N/A   Overcast
12:55 PM 44.4 °F 39.0 °F 44.1 °F 99% 29.97 in 4.0 mi ESE 10.4 mph - N/A   Overcast
1:15 PM 44.6 °F 39.2 °F 44.2 °F 99% 29.95 in 3.0 mi ESE 10.4 mph - N/A   Overcast
1:35 PM 45.1 °F 40.8 °F 45.0 °F 99% 29.96 in 3.0 mi ESE 8.1 mph - N/A   Overcast
1:55 PM 45.5 °F 39.9 °F 45.3 °F 99% 29.94 in 3.0 mi ESE 11.5 mph 17.3 mph N/A   Overcast
2:15 PM 46.0 °F 41.4 °F 45.7 °F 99% 29.93 in 3.0 mi SE 9.2 mph - N/A   Overcast
2:35 PM 46.4 °F 42.9 °F 46.0 °F 99% 29.91 in 3.0 mi ESE 6.9 mph - N/A   Overcast
2:55 PM 46.4 °F 42.4 °F 46.4 °F 100% 29.91 in 2.5 mi East 8.1 mph - N/A   Overcast
3:15 PM 46.6 °F - 46.6 °F 100% 29.90 in 3.0 mi ESE 5.8 mph - N/A   Overcast
3:35 PM 46.9 °F - 46.9 °F 100% 29.90 in 2.5 mi ESE 6.9 mph - N/A   Overcast
3:55 PM 47.1 °F - 47.1 °F 100% 29.90 in 3.0 mi ESE 8.1 mph - N/A   Overcast
4:15 PM 47.5 °F - 47.5 °F 100% 29.90 in 3.0 mi ESE 6.9 mph - N/A   Overcast
4:35 PM 47.8 °F - 47.8 °F 100% 29.90 in 4.0 mi SE 10.4 mph - N/A   Overcast
4:55 PM 48.7 °F - 48.7 °F 100% 29.89 in 5.0 mi SE 9.2 mph - N/A   Overcast
5:15 PM 49.3 °F - 49.1 °F 99% 29.88 in 5.0 mi SE 8.1 mph - N/A   Overcast
5:35 PM 49.5 °F - 49.3 °F 99% 29.88 in 7.0 mi SE 9.2 mph - 0.01 in   Overcast
5:55 PM 49.8 °F - 49.5 °F 99% 29.87 in 7.0 mi SSE 5.8 mph - 0.01 in   Overcast
6:15 PM 50.0 °F - 49.8 °F 99% 29.86 in 10.0 mi SE 9.2 mph - N/A   Overcast
6:35 PM 50.0 °F - 50.0 °F 100% 29.86 in 7.0 mi ESE 6.9 mph - N/A   Overcast
6:55 PM 49.6 °F - 49.5 °F 99% 29.85 in 5.0 mi ESE 10.4 mph - N/A   Overcast
7:15 PM 49.3 °F - 49.1 °F 99% 29.83 in 5.0 mi ESE 8.1 mph - N/A   Overcast
7:35 PM 49.1 °F - 48.9 °F 99% 29.83 in 5.0 mi SE 6.9 mph - N/A   Overcast
7:55 PM 48.9 °F - 48.7 °F 99% 29.82 in 5.0 mi SE 6.9 mph - N/A   Overcast
8:15 PM 48.7 °F - 48.7 °F 100% 29.82 in 4.0 mi ESE 4.6 mph - N/A Rain Light Rain
8:55 PM 48.4 °F - 48.4 °F 100% 29.83 in 5.0 mi SSE 6.9 mph - 0.03 in   Overcast
9:15 PM 48.2 °F - 48.2 °F 100% 29.82 in 5.0 mi SE 10.4 mph - N/A   Overcast
9:35 PM 47.7 °F - 47.7 °F 100% 29.79 in 3.0 mi SE 6.9 mph - N/A   Overcast
9:55 PM 46.9 °F - 46.9 °F 100% 29.78 in 2.5 mi SE 5.8 mph - N/A   Overcast
10:15 PM 46.2 °F 45.0 °F 46.2 °F 100% 29.74 in 4.0 mi NE 3.5 mph - N/A   Scattered Clouds
10:35 PM 45.1 °F 43.7 °F 45.1 °F 100% 29.74 in 1.2 mi ESE 3.5 mph - N/A   Scattered Clouds
10:55 PM 44.8 °F 41.0 °F 44.8 °F 100% 29.74 in 0.5 mi SE 6.9 mph - N/A Fog Fog
11:15 PM 43.9 °F 41.3 °F 43.9 °F 100% 29.76 in 0.5 mi South 4.6 mph - N/A Fog Fog
11:35 PM 44.1 °F 42.5 °F 44.2 °F 100% 29.76 in 0.5 mi South 3.5 mph - N/A Fog Fog
11:55 PM 45.1 °F 43.7 °F 45.3 °F 100% 29.77 in 1.8 mi South 3.5 mph - N/A   Overcast